FW7144 Weather Reports


Display with metric or nautical units.
time (UTC)temp
F
wind
direction
speed
MPH
gust
MPH
rain 1hr
in
rain 24hr
in
rain mn
in
humidity
%
barometer
mb
20260506165005 82 262 0.0 6.0 0.00 0.00 0.00 13 1021.4
20260506164406 81 269 0.0 8.0 0.00 0.00 0.00 15 1021.4
20260506163805 81 269 6.0 10.0 0.00 0.00 0.00 15 1021.4
20260506163205 81 135 0.0 8.0 0.00 0.00 0.00 13 1021.4
20260506162605 81 300 2.0 7.0 0.00 0.00 0.00 15 1021.4
20260506162005 80 302 0.0 8.0 0.00 0.00 0.00 14 1021.4
20260506161430 81 338 3.0 7.0 0.00 0.00 0.00 19 1021.5
20260506160830 80 308 3.0 8.0 0.00 0.00 0.00 16 1021.5
20260506160205 79 63 0.0 5.0 0.00 0.00 0.00 15 1021.5
20260506155605 79 96 3.0 6.0 0.00 0.00 0.00 14 1021.5
20260506155005 79 107 0.0 4.0 0.00 0.00 0.00 15 1021.6
20260506154405 78 124 1.0 6.0 0.00 0.00 0.00 14 1021.6
20260506153830 77 83 2.0 7.0 0.00 0.00 0.00 14 1021.6
20260506153205 78 87 0.0 5.0 0.00 0.00 0.00 15 1021.6
20260506152605 77 329 0.0 5.0 0.00 0.00 0.00 15 1021.7
20260506152005 76 114 2.0 5.0 0.00 0.00 0.00 16 1021.7
20260506151405 77 324 0.0 2.0 0.00 0.00 0.00 17 1021.7
20260506150805 76 299 0.0 4.0 0.00 0.00 0.00 18 1021.7
20260506150206 76 274 0.0 4.0 0.00 0.00 0.00 20 1021.8
20260506145605 76 241 0.0 5.0 0.00 0.00 0.00 20 1021.8
20260506145030 75 272 0.0 3.0 0.00 0.00 0.00 22 1021.8
20260506144405 75 272 0.0 3.0 0.00 0.00 0.00 21 1021.8
20260506143805 73 237 0.0 3.0 0.00 0.00 0.00 25 1021.9
20260506143205 72 309 0.0 2.0 0.00 0.00 0.00 26 1022.0
20260506142605 70 288 0.0 0.0 0.00 0.00 0.00 28 1022.0
20260506142043 68 208 0.0 0.0 0.00 0.00 0.00 32 1022.0
20260506141405 67 220 0.0 0.0 0.00 0.00 0.00 36 1021.9
20260506140805 65 220 0.0 2.0 0.00 0.00 0.00 34 1021.9
20260506140206 63 70 0.0 6.0 0.00 0.00 0.00 37 1021.9
20260506135605 62 105 0.0 5.0 0.00 0.00 0.00 39 1021.8
20260506135005 61 98 2.0 4.0 0.00 0.00 0.00 39 1021.9
20260506134406 60 73 2.0 4.0 0.00 0.00 0.00 39 1021.8
20260506133805 59 56 1.0 3.0 0.00 0.00 0.00 44 1021.8
20260506133205 58 91 3.0 4.0 0.00 0.00 0.00 43 1021.7
20260506132630 56 71 2.0 3.0 0.00 0.00 0.00 45 1021.7
20260506132005 56 74 1.0 5.0 0.00 0.00 0.00 43 1021.6
20260506131405 54 115 3.0 6.0 0.00 0.00 0.00 48 1021.5
20260506130805 52 106 3.0 5.0 0.00 0.00 0.00 51 1021.5
20260506130205 49 75 2.0 5.0 0.00 0.00 0.00 57 1021.3
20260506125605 47 67 2.0 6.0 0.00 0.00 0.00 60 1021.3
20260506125005 47 134 2.0 4.0 0.00 0.00 0.00 61 1021.3
20260506124405 44 83 0.0 3.0 0.00 0.00 0.00 67 1021.3
20260506123805 43 116 0.0 2.0 0.00 0.00 0.00 68 1021.2
20260506123230 42 92 0.0 2.0 0.00 0.00 0.00 69 1021.3
20260506122605 42 101 0.0 2.0 0.00 0.00 0.00 68 1021.2
20260506122005 42 85 0.0 3.0 0.00 0.00 0.00 68 1021.1
20260506121405 43 116 2.0 3.0 0.00 0.00 0.00 68 1021.0
20260506120818 43 58 0.0 3.0 0.00 0.00 0.00 66 1021.0
20260506120205 45 129 0.0 5.0 0.00 0.00 0.00 61 1021.0
20260506115605 47 100 2.0 5.0 0.00 0.00 0.00 60 1020.9
20260506115005 45 145 2.0 6.0 0.00 0.00 0.00 65 1020.9
20260506114405 44 117 1.0 5.0 0.00 0.00 0.00 65 1020.9
20260506113805 43 142 3.0 5.0 0.00 0.00 0.00 67 1020.8
20260506113205 43 137 2.0 6.0 0.00 0.00 0.00 68 1020.8
20260506112605 42 129 2.0 6.0 0.00 0.00 0.00 66 1020.8
20260506112005 43 122 2.0 4.0 0.00 0.00 0.00 64 1020.8
20260506111405 44 114 0.0 7.0 0.00 0.00 0.00 66 1020.8
20260506110830 43 106 2.0 6.0 0.00 0.00 0.00 67 1020.8
20260506110205 43 113 0.0 3.0 0.00 0.00 0.00 62 1020.8
20260506105655 45 81 0.0 2.0 0.00 0.00 0.00 61 1020.7
20260506105005 45 74 0.0 4.0 0.00 0.00 0.00 63 1020.6
20260506104405 45 6 0.0 5.0 0.00 0.00 0.00 63 1020.6
20260506103805 45 62 0.0 4.0 0.00 0.00 0.00 62 1020.6
20260506103217 46 110 2.0 4.0 0.00 0.00 0.00 61 1020.6
20260506102605 44 143 0.0 3.0 0.00 0.00 0.00 65 1020.5
20260506102017 44 102 2.0 4.0 0.00 0.00 0.00 64 1020.4
20260506101405 43 90 0.0 6.0 0.00 0.00 0.00 63 1020.4
20260506100805 44 67 0.0 2.0 0.00 0.00 0.00 62 1020.2
20260506100205 44 39 0.0 4.0 0.00 0.00 0.00 63 1020.2
20260506095618 44 50 0.0 3.0 0.00 0.00 0.00 62 1020.2
20260506095042 44 77 0.0 4.0 0.00 0.00 0.00 62 1020.0
20260506094405 45 87 3.0 6.0 0.00 0.00 0.00 59 1019.9
20260506093805 44 128 1.0 3.0 0.00 0.00 0.00 64 1019.8
20260506093205 44 123 0.0 4.0 0.00 0.00 0.00 62 1019.8
20260506092605 44 114 2.0 5.0 0.00 0.00 0.00 63 1019.7
20260506092005 43 123 1.0 2.0 0.00 0.00 0.00 64 1019.7
20260506091405 43 84 0.0 2.0 0.00 0.00 0.00 62 1019.7
20260506090805 43 76 0.0 3.0 0.00 0.00 0.00 63 1019.7
20260506090205 43 85 3.0 4.0 0.00 0.00 0.00 60 1019.6
20260506085605 45 77 0.0 4.0 0.00 0.00 0.00 59 1019.5
20260506085005 45 96 0.0 6.0 0.00 0.00 0.00 59 1019.5
20260506084405 46 97 1.0 4.0 0.00 0.00 0.00 57 1019.5
20260506083830 45 84 0.0 3.0 0.00 0.00 0.00 58 1019.5
20260506083205 46 109 0.0 3.0 0.00 0.00 0.00 55 1019.5
20260506082605 48 84 0.0 4.0 0.00 0.00 0.00 50 1019.5
20260506082005 50 81 0.0 3.0 0.00 0.00 0.00 53 1019.6
20260506081405 48 92 2.0 4.0 0.00 0.00 0.00 54 1019.6
20260506080806 47 119 0.0 3.0 0.00 0.00 0.00 55 1019.6
20260506080218 47 120 0.0 2.0 0.00 0.00 0.00 53 1019.6
20260506073205 49 85 0.0 3.0 0.00 0.00 0.00 49 1019.7
20260506072606 51 90 1.0 2.0 0.00 0.00 0.00 46 1019.8
20260506072018 53 31 0.0 3.0 0.00 0.00 0.00 44 1019.7
20260506071406 54 124 0.0 6.0 0.00 0.00 0.00 44 1019.7
20260506070805 55 101 3.0 7.0 0.00 0.00 0.00 39 1019.7
20260506070205 53 112 2.0 3.0 0.00 0.00 0.00 44 1019.8
20260506062005 52 49 0.0 3.0 0.00 0.00 0.00 45 1019.9
20260506061430 53 64 0.0 3.0 0.00 0.00 0.00 43 1019.8
20260506060830 54 49 0.0 2.0 0.00 0.00 0.00 42 1019.8
20260506060205 55 114 0.0 3.0 0.00 0.00 0.00 40 1019.8
20260506051405 58 96 4.0 6.0 0.00 0.00 0.00 37 1019.8
20260506050805 59 73 3.0 6.0 0.00 0.00 0.00 34 1019.7
20260506050230 58 78 3.0 6.0 0.00 0.00 0.00 35 1019.7
20260506045005 57 82 3.0 5.0 0.00 0.00 0.00 36 1019.7
20260506044405 57 70 2.0 6.0 0.00 0.00 0.00 37 1019.7
20260506043830 58 80 0.0 7.0 0.00 0.00 0.00 35 1019.6
20260506043205 59 85 3.0 6.0 0.00 0.00 0.00 36 1019.5
20260506042617 59 70 0.0 2.0 0.00 0.00 0.00 39 1019.4
20260506042005 61 100 0.0 6.0 0.00 0.00 0.00 35 1019.4
20260506041405 62 76 0.0 3.0 0.00 0.00 0.00 34 1019.4
20260506040805 63 91 0.0 3.0 0.00 0.00 0.00 37 1019.3
20260506040205 63 109 0.0 0.0 0.00 0.00 0.00 36 1019.2
20260506035605 63 123 0.0 2.0 0.00 0.00 0.00 35 1019.2
20260506035005 62 81 0.0 0.0 0.00 0.00 0.00 36 1019.1
20260506034405 62 194 0.0 0.0 0.00 0.00 0.00 38 1019.0
20260506033805 63 79 0.0 0.0 0.00 0.00 0.00 33 1018.9
20260506033205 66 79 0.0 3.0 0.00 0.00 0.00 33 1018.9
20260506032605 69 144 0.0 3.0 0.00 0.00 0.00 29 1018.8
20260506032030 69 160 0.0 2.0 0.00 0.00 0.00 29 1018.7
20260506031405 70 191 0.0 2.0 0.00 0.00 0.00 27 1018.6
20260506030805 70 187 0.0 5.0 0.00 0.00 0.00 26 1018.6
20260506030205 66 249 0.0 0.0 0.00 0.00 0.00 29 1018.6
20260506025605 66 54 0.0 3.0 0.00 0.00 0.00 33 1018.5
20260506025005 68 30 0.0 4.0 0.00 0.00 0.00 27 1018.4
20260506024443 68 42 0.0 4.0 0.00 0.00 0.00 26 1018.3
20260506023805 69 58 0.0 7.0 0.00 0.00 0.00 24 1018.3
20260506023205 70 56 2.0 5.0 0.00 0.00 0.00 25 1018.2
20260506022605 70 41 2.0 6.0 0.00 0.00 0.00 24 1018.1
20260506022006 71 59 1.0 5.0 0.00 0.00 0.00 24 1018.1
20260506021405 73 87 2.0 7.0 0.00 0.00 0.00 23 1018.0
20260506020805 76 64 6.0 9.0 0.00 0.00 0.00 22 1017.9
20260506020205 75 87 4.0 8.0 0.00 0.00 0.00 22 1017.8
20260506015605 75 84 4.0 6.0 0.00 0.00 0.00 21 1017.7
20260506015030 74 89 2.0 6.0 0.00 0.00 0.00 22 1017.7
20260506014405 76 83 3.0 7.0 0.00 0.00 0.00 21 1017.6
20260506013805 77 77 5.0 8.0 0.00 0.00 0.00 20 1017.5
20260506013205 78 81 6.0 8.0 0.00 0.00 0.00 19 1017.4
20260506012605 78 86 5.0 9.0 0.00 0.00 0.00 19 1017.3
20260506012005 77 77 0.0 8.0 0.00 0.00 0.00 22 1017.3
20260506011430 78 71 2.0 8.0 0.00 0.00 0.00 20 1017.3
20260506010805 79 71 1.0 8.0 0.00 0.00 0.00 20 1017.2
20260506010205 80 79 2.0 6.0 0.00 0.00 0.00 19 1017.2
20260506005605 82 59 2.0 8.0 0.00 0.00 0.00 18 1017.1
20260506005006 83 62 3.0 9.0 0.00 0.00 0.00 15 1017.1
20260506004430 84 105 4.0 10.0 0.00 0.00 0.00 15 1017.1
20260506003805 85 84 4.0 9.0 0.00 0.00 0.00 14 1017.1
20260506003205 87 0 2.0 9.0 0.00 0.00 0.00 7 1017.1
20260506002605 87 317 2.0 4.0 0.00 0.00 0.00 8 1017.1
20260506002005 88 8 0.0 11.0 0.00 0.00 0.00 8 1017.0
20260506001405 88 78 0.0 10.0 0.00 0.00 0.00 9 1017.0
20260506000805 88 47 0.0 8.0 0.00 0.00 0.00 9 1017.0
20260506000205 88 315 2.0 8.0 0.00 0.00 0.00 9 1016.9
20260505235605 88 18 2.0 9.0 0.00 0.00 0.00 8 1016.9
20260505235005 89 354 0.0 8.0 0.00 0.00 0.00 9 1016.9
20260505234430 89 333 2.0 11.0 0.00 0.00 0.00 10 1016.9
20260505233805 90 70 2.0 11.0 0.00 0.00 0.00 9 1016.9
20260505233206 90 17 2.0 14.0 0.00 0.00 0.00 9 1016.9
20260505232605 90 351 2.0 14.0 0.00 0.00 0.00 9 1016.9
20260505232030 90 336 3.0 7.0 0.00 0.00 0.00 10 1016.8
20260505231405 91 76 0.0 12.0 0.00 0.00 0.00 10 1016.9
20260505230805 90 9 2.0 12.0 0.00 0.00 0.00 10 1016.9
20260505230205 90 314 4.0 13.0 0.00 0.00 0.00 10 1016.9
20260505225605 90 344 2.0 9.0 0.00 0.00 0.00 11 1016.9
20260505225005 90 318 2.0 13.0 0.00 0.00 0.00 12 1016.9
20260505224405 91 158 0.0 8.0 0.00 0.00 0.00 10 1017.0
20260505223805 90 29 2.0 13.0 0.00 0.00 0.00 9 1017.1
20260505223205 91 335 0.0 10.0 0.00 0.00 0.00 13 1017.3
20260505222630 91 113 0.0 14.0 0.00 0.00 0.00 11 1017.3
20260505222005 91 19 0.0 13.0 0.00 0.00 0.00 14 1017.3
20260505221508 91 354 4.0 14.0 0.00 0.00 0.00 10 1017.3
20260505220830 91 334 0.0 16.0 0.00 0.00 0.00 11 1017.3
20260505220206 90 7 1.0 11.0 0.00 0.00 0.00 13 1017.5
20260505215605 90 314 3.0 11.0 0.00 0.00 0.00 16 1017.4
20260505215005 89 247 3.0 10.0 0.00 0.00 0.00 15 1017.5
20260505214405 90 354 3.0 13.0 0.00 0.00 0.00 14 1017.6
20260505213817 89 308 5.0 16.0 0.00 0.00 0.00 14 1017.6
20260505213205 89 343 5.0 19.0 0.00 0.00 0.00 14 1017.7
20260505212605 89 12 4.0 13.0 0.00 0.00 0.00 16 1017.9
20260505212005 90 262 4.0 12.0 0.00 0.00 0.00 16 1018.0
20260505211405 89 304 3.0 13.0 0.00 0.00 0.00 17 1018.1
20260505210830 89 16 0.0 14.0 0.00 0.00 0.00 15 1018.2
20260505210205 90 322 2.0 15.0 0.00 0.00 0.00 14 1018.2
20260505205605 90 45 3.0 9.0 0.00 0.00 0.00 15 1018.4
20260505205005 89 341 1.0 10.0 0.00 0.00 0.00 17 1018.4
20260505204405 89 64 0.0 14.0 0.00 0.00 0.00 15 1018.5
20260505203805 89 19 2.0 12.0 0.00 0.00 0.00 16 1018.6
20260505203205 90 339 2.0 13.0 0.00 0.00 0.00 17 1018.6
20260505202605 90 186 1.0 9.0 0.00 0.00 0.00 17 1018.8
20260505202005 89 22 0.0 13.0 0.00 0.00 0.00 19 1018.9
20260505201405 89 346 3.0 12.0 0.00 0.00 0.00 18 1018.8
20260505200805 89 346 3.0 16.0 0.00 0.00 0.00 19 1019.0
20260505200217 88 310 6.0 17.0 0.00 0.00 0.00 19 1019.0
20260505195605 88 302 3.0 11.0 0.00 0.00 0.00 20 1019.2
20260505195006 88 334 2.0 14.0 0.00 0.00 0.00 17 1019.2
20260505194442 87 318 2.0 14.0 0.00 0.00 0.00 19 1019.3
20260505193805 87 2 2.0 15.0 0.00 0.00 0.00 19 1019.3
20260505193207 88 251 2.0 16.0 0.00 0.00 0.00 20 1019.4
20260505192605 88 284 0.0 11.0 0.00 0.00 0.00 21 1019.3
20260505192005 88 251 2.0 13.0 0.00 0.00 0.00 22 1019.4
20260505191405 87 324 3.0 13.0 0.00 0.00 0.00 22 1019.5
20260505190805 87 338 0.0 9.0 0.00 0.00 0.00 26 1019.7
20260505190205 86 317 2.0 12.0 0.00 0.00 0.00 26 1019.7
20260505185605 85 213 4.0 11.0 0.00 0.00 0.00 24 1019.7
20260505185005 85 293 0.0 12.0 0.00 0.00 0.00 26 1019.9
20260505184405 84 314 3.0 17.0 0.00 0.00 0.00 28 1019.9
20260505183805 85 330 2.0 16.0 0.00 0.00 0.00 28 1019.9
20260505183205 84 301 3.0 9.0 0.00 0.00 0.00 27 1020.0
20260505182605 85 337 2.0 11.0 0.00 0.00 0.00 28 1020.1
20260505182005 85 348 2.0 16.0 0.00 0.00 0.00 23 1020.1
20260505181405 84 0 3.0 11.0 0.00 0.00 0.00 24 1020.2
20260505180830 83 299 4.0 13.0 0.00 0.00 0.00 28 1020.3
20260505180205 84 268 3.0 16.0 0.00 0.00 0.00 26 1020.3
20260505175605 83 312 2.0 17.0 0.00 0.00 0.00 27 1020.4
20260505175005 83 305 3.0 12.0 0.00 0.00 0.00 26 1020.4
20260505174405 82 273 2.0 11.0 0.00 0.00 0.00 28 1020.5
20260505173805 82 271 4.0 11.0 0.00 0.00 0.00 26 1020.6
20260505173205 82 328 3.0 12.0 0.00 0.00 0.00 33 1020.5
20260505172605 82 302 2.0 8.0 0.00 0.00 0.00 34 1020.6
20260505172005 81 188 0.0 9.0 0.00 0.00 0.00 31 1020.6
20260505171405 80 266 0.0 8.0 0.00 0.00 0.00 33 1020.6
20260505170805 79 274 0.0 12.0 0.00 0.00 0.00 35 1020.8
20260505170205 78 120 0.0 9.0 0.00 0.00 0.00 38 1020.7
20260505165605 78 268 0.0 13.0 0.00 0.00 0.00 40 1020.8